This is the latest recevied weather packets stored in our database for station/object N8TWM-13. If no packets are shown the sender has not sent any weather packets the latest 10 day(s).
| Time | Temp. | Humidity | Pressure | Rain* | Wind** | Luminosity | Snow |
|---|---|---|---|---|---|---|---|
| 1777929600 | 21.67° C | 56% | 1005 hPa | 0 mm | - | 125 W/m² | - |
| 1777929296 | 22.22° C | 55% | 1005 hPa | 0 mm | - | 170 W/m² | - |
| 1777928994 | 22.78° C | 53% | 1005.2 hPa | 0 mm | - | 495 W/m² | - |
| 1777928690 | 22.78° C | 53% | 1005 hPa | 0 mm | - | 313 W/m² | - |
| 1777928387 | 22.78° C | 52% | 1004.9 hPa | 0 mm | - | 209 W/m² | - |
| 1777928085 | 23.33° C | 52% | 1004.8 hPa | 0 mm | - | 463 W/m² | - |
| 1777927783 | 22.78° C | 53% | 1005 hPa | 0 mm | - | 476 W/m² | - |
| 1777927481 | 22.78° C | 55% | 1005.1 hPa | 0 mm | - | 555 W/m² | - |
| 1777927180 | 22.78° C | 55% | 1004.9 hPa | 0 mm | - | 510 W/m² | - |
| 1777926877 | 22.22° C | 55% | 1005.5 hPa | 0 mm | - | 250 W/m² | - |
| 1777926573 | 22.22° C | 55% | 1005.5 hPa | 0 mm | - | 631 W/m² | - |
| 1777926270 | 22.78° C | 54% | 1005.5 hPa | 0 mm | - | 140 W/m² | - |
| 1777925966 | 22.22° C | 56% | 1005.6 hPa | 0 mm | - | 615 W/m² | - |
| 1777925664 | 22.22° C | 56% | 1005.3 hPa | 0 mm | - | 370 W/m² | - |
| 1777925361 | 21.67° C | 55% | 1005.6 hPa | 0 mm | - | 303 W/m² | - |
| 1777925058 | 21.67° C | 57% | 1005.6 hPa | 0 mm | - | 267 W/m² | - |
| 1777924755 | 21.67° C | 56% | 1005.7 hPa | 0 mm | - | 238 W/m² | - |
| 1777924450 | 22.22° C | 55% | 1005.8 hPa | 0 mm | - | 239 W/m² | - |
| 1777924147 | 22.22° C | 56% | 1005.8 hPa | 0 mm | - | 688 W/m² | - |
| 1777923843 | 22.78° C | 55% | 1005.7 hPa | 0 mm | - | 640 W/m² | - |
| 1777923539 | 22.22° C | 56% | 1005.7 hPa | 0 mm | - | 334 W/m² | - |
| 1777923236 | 22.22° C | 56% | 1005.8 hPa | 0 mm | - | 459 W/m² | - |
| 1777922935 | 22.78° C | 54% | 1006.1 hPa | 0 mm | - | 385 W/m² | - |
| 1777922632 | 22.78° C | 53% | 1006.2 hPa | 0 mm | - | 663 W/m² | - |
| 1777922330 | 22.22° C | 54% | 1006.2 hPa | 0 mm | - | 579 W/m² | - |
* Rain latest hour (hover to see other rain measurements)
** Current wind speed in m/s (hover to see current wind gust speed)